This is the latest recevied weather packets stored in our database for station/object KK4WXG. If no packets are shown the sender has not sent any weather packets the latest 10 day(s).
| Time | Temp. | Humidity | Pressure | Rain* | Wind** | Luminosity | Snow |
|---|---|---|---|---|---|---|---|
| 1778100817 | 20° C | 80% | 1007.7 hPa | 0 mm | - | 79 W/m² | - |
| 1778100514 | 20° C | 80% | 1007.6 hPa | 0 mm | - | 42 W/m² | - |
| 1778100212 | 20° C | 81% | 1007.3 hPa | 0 mm | - | 41 W/m² | - |
| 1778099909 | 20° C | 81% | 1007.2 hPa | 0 mm | - | 66 W/m² | - |
| 1778099606 | 20° C | 80% | 1007.2 hPa | 0 mm | - | 42 W/m² | - |
| 1778099303 | 19.44° C | 81% | 1007.4 hPa | 0 mm | - | 64 W/m² | - |
| 1778099000 | 19.44° C | 81% | 1007.2 hPa | 0 mm | - | 90 W/m² | - |
| 1778098697 | 19.44° C | 80% | 1007.4 hPa | 0 mm | - | 102 W/m² | - |
| 1778098394 | 20° C | 79% | 1007.5 hPa | 0 mm | - | 48 W/m² | - |
| 1778098091 | 20° C | 79% | 1007.2 hPa | 0 mm | - | 82 W/m² | - |
| 1778097787 | 20° C | 80% | 1007.3 hPa | 0 mm | - | 108 W/m² | - |
| 1778097483 | 20° C | 80% | 1007.3 hPa | 0 mm | - | 63 W/m² | - |
| 1778097181 | 20° C | 78% | 1007.6 hPa | 0 mm | - | 79 W/m² | - |
| 1778096877 | 20° C | 78% | 1007.2 hPa | 0 mm | - | 50 W/m² | - |
| 1778096574 | 20° C | 78% | 1007.5 hPa | 0 mm | - | 33 W/m² | - |
| 1778096272 | 20° C | 77% | 1007.2 hPa | 0 mm | - | 38 W/m² | - |
| 1778095968 | 20.56° C | 76% | 1007.2 hPa | 0 mm | - | 104 W/m² | - |
| 1778095664 | 20.56° C | 76% | 1007.2 hPa | 0 mm | - | 235 W/m² | - |
| 1778095361 | 20.56° C | 78% | 1007.4 hPa | 0 mm | - | 158 W/m² | - |
| 1778095058 | 20.56° C | 75% | 1007.4 hPa | 0 mm | - | 115 W/m² | - |
| 1778094754 | 21.11° C | 75% | 1007.6 hPa | 0 mm | - | 290 W/m² | - |
| 1778094452 | 21.11° C | 76% | 1007.4 hPa | 0 mm | - | 343 W/m² | - |
| 1778094148 | 21.11° C | 76% | 1007.4 hPa | 0 mm | - | 306 W/m² | - |
| 1778093845 | 21.11° C | 76% | 1007.3 hPa | 0 mm | - | 441 W/m² | - |
| 1778093541 | 21.11° C | 76% | 1007.2 hPa | 0 mm | - | 490 W/m² | - |
* Rain latest hour (hover to see other rain measurements)
** Current wind speed in m/s (hover to see current wind gust speed)